Regional Weather Roundup
Issued by NWS

Home | Current Version | Previous Version | Graphics & Text | Print | Product List | Glossary Off
Versions: 1 2 3 4 5 6 7 8 9 10 11 12 13 14 15 16 17 18 19 20 21 22 23 24 25 26 27 28 29 30 31 32 33 34 35 36 37 38 39 40 41 42 43 44 45 46 47 48 49 50

000
ASUS43 KMPX 220510
RWRMN
WEATHER ROUNDUP FOR MINNESOTA
NATIONAL WEATHER SERVICE TWIN CITIES/CHANHASSEN MN
1100 PM CST WED FEB 21 2018


NOTE: "FAIR" INDICATES FEW OR NO CLOUDS BELOW 12,000 FEET WITH NO
SIGNIFICANT WEATHER AND/OR OBSTRUCTIONS TO VISIBILITY. N/A MEANS
CURRENT SKY AND/OR WEATHER CONDITIONS ARE NOT AVAILABLE.

MNZ060>063-068>070-220600-
   Twin Cities Metro

CITY           SKY/WX    TMP DP  RH WIND       PRES   REMARKS
TWIN CITIES    MOCLDY    13   5  70 CALM      30.64F
ST PAUL        FAIR      10   5  80 CALM      30.67S
CRYSTAL        FAIR       8   1  73 CALM      30.63F
BLAINE         FAIR       7   1  78 CALM      30.62F
LAKEVILLE      FAIR       5   1  85 CALM      30.64S
EDEN PRAIRIE   FAIR      12   3  67 S3        30.62F
SOUTH ST PAUL  FAIR       9   5  83 CALM      30.65F
LAKE ELMO      FAIR       5   3  92 CALM      30.65F
$$
MNZ001>005-007-008-013>017-022>024-027-028-220600-
   Northwest Minnesota

CITY           SKY/WX    TMP DP  RH WIND       PRES   REMARKS
BEMIDJI        FAIR       4  -5  66 SW3       30.52R
HALLOCK        FAIR      -6  -9  84 S13       30.51R WCI -25
ROSEAU         FAIR      -2  -8  78 S6        30.51R WCI -14
WARROAD        FAIR       0  -6  78 SW7       30.50S WCI -13
THIEF RVR FALL FAIR      -1  -5  82 S10       30.53S WCI -17
CROOKSTON      FAIR       0  -6  78 S8        30.55S WCI -15
FOSSTON        FAIR      -8 -11  84 S7        30.53S WCI -22
DETROIT LAKES  FAIR       5   0  78 SE5       30.54S WCI  -4
MOORHEAD       FAIR      -4  -9  77 SE7       30.56S WCI -18
PARK RAPIDS    FAIR      -4 -11  72 CALM      30.54R
MAHNOMEN       FAIR       3  -4  72 S9        30.53S WCI -12
$$
MNZ006-009>011-018-025>026-220600-
   North Central Minnesota

CITY           SKY/WX    TMP DP  RH WIND       PRES   REMARKS
BAUDETTE       FAIR      -2  -8  76 S3        30.50R
FLAG ISLAND    FAIR      -2  -8  78 SE7       30.49S WCI -16
INTL FALLS     FAIR       4  -5  66 W6        30.52S WCI  -7
WASKISH        FAIR     -13 -17  84 CALM      30.53R
BIG FORK       FAIR       1  -6  71 CALM      30.52F
LONGVILLE      FAIR      -9 -15  77 SW3       30.56R
GRAND RAPIDS   FAIR       0  -6  76 S8        30.57R WCI -14
CRANE LAKE     FAIR      -9 -11  92 CALM      30.56S
ORR            FAIR       5  -2  72 CALM      30.51R
COOK             N/A      3  -6  66 CALM      30.54S
WALKER         FAIR       4  -6  64 SW5       30.55R WCI  -6
$$
MNZ012-019>021-037-220600-
   Northeast Minnesota

CITY           SKY/WX    TMP DP  RH WIND       PRES   REMARKS
DULUTH         FAIR       9  -2  61 SW8       30.57R WCI  -3
ELY            FAIR       5  -2  72 SW5       30.53S WCI  -4
HIBBING        FAIR      -9 -13  83 CALM      30.54S
EVELETH        FAIR     N/A N/A N/A CALM      30.56R
DULUTH HARBOR  FAIR      10   1  67 SW8       30.66R WCI  -1
TWO HARBORS    FAIR       7   0  72 W6        30.58R WCI  -3
GRAND MARAIS     N/A     18   3  52 W5        30.60R WCI  11
G MARAIS ARPRT FAIR       9   0  66 CALM      30.51R
$$
MNZ029>031-032-039>041-046>048-054>057-064-220600-
   West Central Minnesota

CITY           SKY/WX    TMP DP  RH WIND       PRES   REMARKS
FERGUS FALLS   FAIR       5  -2  72 SE7       30.57S WCI  -7
WHEATON        CLOUDY     0  -8  71 SE7       30.58F WCI -13
MORRIS         CLOUDY     0  -6  78 SE6       30.56S WCI -12
ALEXANDRIA     FAIR       4  -3  73 S5        30.55F WCI  -5
ELBOW LAKE     FAIR       4  -3  74 E6        30.57S WCI  -7
WADENA         FAIR      -4  -9  77 S3        30.55S
GLENWOOD       FAIR       3   0  85 SE6       30.57S WCI  -8
APPLETON       CLOUDY     7   0  72 CALM      30.57F
BENSON         CLOUDY     7   0  72 S5        30.58F WCI  -2
ORTONVILLE     CLOUDY     1  -4  78 S3        30.55F
MADISON        CLOUDY     3  -2  78 S5        30.56F WCI  -6
WILLMAR        FAIR       3   0  85 SE3       30.60F
$$
MNZ033>034-036-042>043-049>051-058-059-220600-
   Central Minnesota

CITY           SKY/WX    TMP DP  RH WIND       PRES   REMARKS
ST CLOUD       FAIR      -2  -5  87 CALM      30.61S
SAUK CENTRE    FAIR       2  -3  77 CALM      30.58F
PAYNESVILLE    FAIR      -4  -7  85 CALM      30.59F
AITKIN         FAIR      -2  -8  78 S3        30.58R
PINE RIVER     FAIR      -6  -9  84 CALM      30.59R
BRAINERD       FAIR       3  -6  66 S3        30.59R
STAPLES        FAIR      -6  -9  84 CALM      30.57S
LONG PRAIRIE   FAIR       1  -4  78 CALM      30.57F
LITTLE FALLS   FAIR       1  -8  66 CALM      30.61S
LITCHFIELD     FAIR       7   1  78 CALM      30.59F
BUFFALO        FAIR       4  -3  74 CALM      30.63F
MAPLE LAKE     FAIR       3  -1  81 CALM      30.61F
HUTCHINSON     FAIR       4   0  83 SE3       30.61F
$$
MNZ037-044-045-052-053-220600-
   East Central Minnesota

CITY           SKY/WX    TMP DP  RH WIND       PRES   REMARKS
PRINCETON      FAIR       1  -2  85 CALM      30.62F
CAMBRIDGE        N/A      1  -6  71 CALM      30.64R
RUSH CITY      MOCLDY     2  -3  79 S3        30.64S
MOOSE LAKE     FAIR       0  -6  78 CALM      30.60R
HINCKLEY       FAIR       1  -2  85 CALM      30.62S
CLOQUET        FAIR       9  -2  61 SW6       30.59R WCI  -1
MCGREGOR       FAIR       7   0  72 S3        30.59S
$$
MNZ071>073-080-081-089-090-097-098-220600-
   Southwest Minnesota

CITY           SKY/WX    TMP DP  RH WIND       PRES   REMARKS
MONTEVIDEO     CLOUDY     3  -2  78 CALM      30.58F
GRANITE FALLS  CLOUDY     4  -1  79 CALM      30.58F
CANBY          CLOUDY     9   0  68 CALM      30.56F
MARSHALL       CLOUDY     5  -1  76 CALM      30.55F
REDWOOD FALLS  CLEAR      5   1  83 SE5       30.58F WCI  -4
OLIVIA         CLOUDY     7   1  78 SE6       30.58F WCI  -3
PIPESTONE      CLOUDY    10   3  72 S9        30.50S WCI  -2
WORTHINGTON    CLOUDY    12   6  77 SE6       30.54F WCI   3
JACKSON        CLOUDY    12   7  79 SE6       30.56S WCI   3
TRACY          CLOUDY     9   3  77 S5        30.54F WCI   1
SLAYTON        CLOUDY     7   3  84 SE7       30.53F WCI  -5
$$
MNZ065>067-074>077-082>085-091>093-220600-
   South Central Minnesota

CITY           SKY/WX    TMP DP  RH WIND       PRES   REMARKS
MANKATO        FAIR      10   5  80 E5        30.61F WCI   2
NEW ULM        PTCLDY    10   1  67 SE6       30.60F WCI   1
ST JAMES       MOCLDY    12   7  79 CALM      30.60F
FAIRMONT       CLOUDY    12   7  80 E5        30.59F WCI   4
GLENCOE        FAIR       8   2  78 CALM      30.61F
FARIBAULT      FAIR       9   5  85 CALM      30.63S
OWATONNA       FAIR      10   7  85 CALM      30.61F
WASECA         CLOUDY    14   9  79 E3        30.62F
ALBERT LEA     CLOUDY    16  10  79 CALM      30.59F
$$
MNZ078>079-086>088-094>096-220600-
   Southeast Minnesota

CITY           SKY/WX    TMP DP  RH WIND       PRES   REMARKS
ROCHESTER      CLOUDY    15   9  76 NE6       30.59F WCI   6
RED WING       FAIR       7   1  78 CALM      30.66F
STANTON        CLOUDY     6   2  84 CALM      30.63F
DODGE CENTER   CLOUDY    12   9  85 CALM      30.60F
WINONA         FAIR      14  12  92 NW3       30.66F
AUSTIN         CLOUDY    18  14  86 NE3       30.58F
PRESTON        MOCLDY    15  11  84 NE3       30.60F
$$
ABBREVIATIONS USED IN REMARKS
   TC - TEMPERATURES IN CELSIUS
  WCI - WIND CHILL INDEX
   HX - HEAT INDEX
  VSB - VISIBILITY
$$



USA.gov is the U.S. government's official web portal to all federal, state and local government web resources and services.